User: anonymous   Login
Location: ????????
(60.5616°N, 46.8254°E)
Time: 09:15:42
(UTC+00:00)
Language:

Cosmos 1992 Rocket - Orbit

View from above orbital plane
View from above orbital plane
View from above satellite
View from above satellite

Ground track
Ground track

The orbit data is extracted from the following two-line orbital elements,

1 19770U 89005B   20157.59863929  .00000013  00000-0  12865-4 0  9992
2 19770  74.0446 210.5298 0004696   6.1162 104.1268 14.38833179642527
Epoch (UTC): 05 June 2020 14:22:02
Eccentricity: 0.0004696
inclination: 74.0446°
perigee height: 759 km
apogee height: 766 km
right ascension of ascending node: 210.5298°
argument of perigee: 6.1162°
revolutions per day: 14.38833179
mean anomaly at epoch: 104.1268°
orbit number at epoch: 64252

The dashed part of the orbit path shows where the satellite is in the earth's shadow,  

DLR